Location: Downe
(51.3167°N, 0.0500°E)
Time: 06:04:28
(UTC+00:00)

Cosmos 1500 Rocket - Pass Details

Date: 17 November 2019
Orbit: 602 x 632 km, 82.5° (Epoch: 09 December)

Event Time Altitude Azimuth Distance (km) Brightness Sun altitude
Rises 06:33:10 0° 204° (SSW) 2,915 7.0 -7.4°
Reaches altitude 10° 06:35:28 10° 210° (SSW) 2,010 6.1 -7.1°
Maximum altitude 06:39:47 48° 285° (WNW) 827 3.8 -6.5°
Drops below altitude 10° 06:44:07 10° 1° (N) 2,013 6.0 -5.8°
Sets 06:46:25 0° 7° (N) 2,920 6.8 -5.5°
